User: anonymous   Login
Location: Unspecified
(0.0000°N, 0.0000°E)
Time: 08:04:10
(UTC+00:00)
Language:

Radarsat - Orbit

View from above orbital plane
View from above orbital plane
View from above satellite
View from above satellite

Ground track
Ground track

The orbit data is extracted from the following two-line orbital elements,

1 23710U 95059A   20024.77985328  .00000008  00000-0  19707-4 0  9994
2 23710  98.5705  35.6871 0001270  90.9040 269.2288 14.30764229264547
Epoch (UTC): 24 January 2020 18:42:59
Eccentricity: 0.0001270
inclination: 98.5705°
perigee height: 788 km
apogee height: 790 km
right ascension of ascending node: 35.6871°
argument of perigee: 90.9040°
revolutions per day: 14.30764229
mean anomaly at epoch: 269.2288°
orbit number at epoch: 26454

The dashed part of the orbit path shows where the satellite is in the earth's shadow,  

DLR